Windsor Locks, CT

2:40 PM EDT on April 23, 2017 (GMT -0400)
Bradley International

Weather History for KBDL - July, 2012

Change the Weather History Date:

Sunday, July 1, 2012

  Actual Average Record
Temperature  
Mean Temperature 80 °F 72 °F  
Max Temperature 92 °F 83 °F 101 °F (1964)
Min Temperature 67 °F 61 °F 46 °F (1988)
Degree Days  
Heating Degree Days 0 0  
Month to date heating degree days 0 0  
Since 1 June heating degree days 36 40  
Since 1 July heating degree days 0 0  
Cooling Degree Days 15 8  
Month to date cooling degree days 15 8  
Year to date cooling degree days 252 191  
Since 1 June cooling degree days 147 152  
Growing Degree Days 28 (Base 50)    
Moisture  
Dew Point 64 °F    
Average Humidity 63    
Maximum Humidity 84    
Minimum Humidity 29    
Precipitation  
Precipitation 0.53 in 0.11 in 2.00 in (1915)
Month to date precipitation 0.53 0.11  
Year to date precipitation 16.99 22.27  
Snow  
Snow 0.00 in 0.00 in 0.00 in (2002)
Month to date snowfall 0.0 0.0  
Since 1 June snowfall 0.0 0.0  
Since 1 July snowfall 0.0 0.0  
Snow Depth -    
Sea Level Pressure  
Sea Level Pressure 29.78 in    
Wind  
Wind Speed 5 mph (West)    
Max Wind Speed 26 mph    
Max Gust Speed 33 mph    
Visibility 10 miles    
Events Rain , Thunderstorm    
T = Trace of Precipitation, MM = Missing Value Source: NWS Daily Summary

Daily Weather History Graph

Daily Weather History Graph

Search for Another Location

Airport or City:

Trip Planner

Search our weather history database for the weather conditions in past years. The results will help you decide how hot, cold, wet, or windy it might be!

Date:

Astronomy

Jul. 01, 2012 Rise Set
Actual Time 5:19 AM EDT 8:29 PM EDT
Civil Twilight 4:45 AM EDT 9:03 PM EDT
Nautical Twilight 4:01 AM EDT 9:47 PM EDT
Astronomical Twilight 3:08 AM EDT 10:40 PM EDT
Moon 6:29 PM EDT (7/1) 3:04 AM EDT (7/1)
Length of Visible Light 16h 18m
Length of Day
15h 10m
Waxing Gibbous, 94% of the Moon is Illuminated
Jul 1
Waxing Gibbous
Jul 3
Full
Jul 10
Last Quarter
Jul 19
New
Jul 26
First Quarter

Hourly Weather History & Observations

Time (EDT) Temp. Heat Index Dew Point Humidity Pressure Visibility Wind Dir Wind Speed Gust Speed Precip Events Conditions
12:51 AM 75.0 °F - 61.0 °F 62% 29.74 in 10.0 mi WSW 6.9 mph - N/A   Clear
1:51 AM 72.0 °F - 61.0 °F 68% 29.74 in 10.0 mi Calm Calm - N/A   Clear
2:51 AM 72.0 °F - 62.1 °F 71% 29.75 in 10.0 mi South 4.6 mph - N/A   Clear
3:51 AM 72.0 °F - 62.1 °F 71% 29.75 in 10.0 mi Calm Calm - N/A   Clear
4:51 AM 68.0 °F - 62.6 °F 83% 29.77 in 10.0 mi SE 3.5 mph - N/A   Scattered Clouds
5:51 AM 69.1 °F - 64.0 °F 84% 29.78 in 9.0 mi Calm Calm - N/A   Partly Cloudy
6:51 AM 72.0 °F - 64.9 °F 78% 29.80 in 10.0 mi SSE 4.6 mph - N/A   Partly Cloudy
7:51 AM 78.1 °F - 64.0 °F 62% 29.81 in 10.0 mi Calm Calm - N/A   Scattered Clouds
8:51 AM 81.0 °F 82.2 °F 63.0 °F 54% 29.81 in 10.0 mi Calm Calm - N/A   Scattered Clouds
9:51 AM 82.9 °F 83.2 °F 60.1 °F 46% 29.81 in 10.0 mi Variable 3.5 mph - N/A   Mostly Cloudy
10:51 AM 84.9 °F 85.0 °F 61.0 °F 44% 29.80 in 10.0 mi Variable 6.9 mph - N/A   Partly Cloudy
11:51 AM 88.0 °F 88.4 °F 62.1 °F 42% 29.79 in 10.0 mi West 6.9 mph - N/A   Scattered Clouds
12:51 PM 88.0 °F 88.7 °F 63.0 °F 43% 29.78 in 10.0 mi SW 6.9 mph - N/A   Mostly Cloudy
1:51 PM 91.0 °F 91.9 °F 63.0 °F 39% 29.77 in 10.0 mi West 10.4 mph 19.6 mph N/A   Mostly Cloudy
2:37 PM 87.8 °F 88.5 °F 62.6 °F 43% 29.76 in 10.0 mi West 8.1 mph - 0.00 in Rain , Thunderstorm Light Thunderstorms and Rain
2:51 PM 77.0 °F - 64.9 °F 66% 29.80 in 0.8 mi WNW 27.6 mph 33.4 mph 0.00 in Rain , Thunderstorm Heavy Thunderstorms and Rain
3:04 PM 71.6 °F - 64.4 °F 78% 29.78 in 3.0 mi SE 12.7 mph 21.9 mph 0.50 in Rain , Thunderstorm Light Thunderstorms and Rain
3:40 PM 75.2 °F - 66.2 °F 73% 29.79 in 10.0 mi NW 3.5 mph - 0.52 in   Mostly Cloudy
3:51 PM 75.0 °F - 69.1 °F 82% 29.79 in 10.0 mi NW 10.4 mph 18.4 mph 0.52 in   Mostly Cloudy
4:06 PM 75.2 °F - 66.2 °F 73% 29.79 in 10.0 mi NW 6.9 mph - 0.00 in Rain , Thunderstorm Light Thunderstorms and Rain
4:29 PM 75.2 °F - 68.0 °F 78% 29.77 in 10.0 mi WSW 6.9 mph - 0.01 in   Mostly Cloudy
4:51 PM 79.0 °F - 68.0 °F 69% 29.77 in 10.0 mi WSW 4.6 mph - 0.01 in   Mostly Cloudy
5:51 PM 82.0 °F 84.9 °F 68.0 °F 62% 29.77 in 10.0 mi West 3.5 mph - N/A   Scattered Clouds
6:51 PM 84.0 °F 87.8 °F 69.1 °F 61% 29.75 in 10.0 mi Calm Calm - N/A   Scattered Clouds
7:51 PM 82.0 °F 85.9 °F 70.0 °F 67% 29.77 in 10.0 mi WSW 3.5 mph - N/A   Scattered Clouds
8:51 PM 75.9 °F - 70.0 °F 82% 29.79 in 10.0 mi SE 5.8 mph - N/A   Scattered Clouds
9:51 PM 73.9 °F - 64.0 °F 71% 29.82 in 10.0 mi NW 5.8 mph - N/A   Clear
10:51 PM 72.0 °F - 57.0 °F 59% 29.84 in 10.0 mi NW 4.6 mph - N/A   Partly Cloudy
11:51 PM 71.1 °F - 55.0 °F 57% 29.83 in 10.0 mi NW 8.1 mph - N/A   Partly Cloudy